TimePST,TemperatureF,Dew PointF,Humidity,Sea Level PressureIn,VisibilityMPH,Wind Direction,Wind SpeedMPH,Gust SpeedMPH,PrecipitationIn,Events,Conditions,WindDirDegrees,DateUTC
12:43 AM,39.2,37.4,93,30.07,5.0,SE,6.9,-,0.04,Rain,Light Rain,130,2013-01-07 08:43:00
12:53 AM,39.0,37.0,93,30.07,5.0,ESE,6.9,-,0.05,Rain,Light Rain,110,2013-01-07 08:53:00
1:12 AM,39.2,37.4,93,30.06,8.0,ESE,8.1,-,0.01,Rain,Light Rain,120,2013-01-07 09:12:00
1:53 AM,45.0,41.0,86,30.07,10.0,SSE,6.9,-,0.02,,Overcast,160,2013-01-07 09:53:00
2:53 AM,45.0,41.0,86,30.04,10.0,SSE,8.1,-,0.00,,Overcast,160,2013-01-07 10:53:00
3:53 AM,46.9,41.0,80,30.03,10.0,South,8.1,-,0.00,,Overcast,180,2013-01-07 11:53:00
4:53 AM,46.9,42.1,83,30.02,10.0,Variable,5.8,-,N/A,,Overcast,0,2013-01-07 12:53:00
5:03 AM,46.4,42.8,87,30.01,10.0,South,6.9,-,0.00,Rain,Light Rain,190,2013-01-07 13:03:00
5:53 AM,46.9,43.0,86,30.01,10.0,South,9.2,19.6,0.00,Rain,Light Rain,190,2013-01-07 13:53:00
6:39 AM,48.2,42.8,82,30.00,10.0,South,12.7,25.3,0.02,Rain,Light Rain,190,2013-01-07 14:39:00
6:53 AM,48.0,43.0,83,30.00,10.0,SSW,8.1,17.3,0.02,Rain,Light Rain,200,2013-01-07 14:53:00
7:53 AM,48.0,44.1,86,30.00,10.0,South,9.2,18.4,0.00,,Overcast,190,2013-01-07 15:53:00
8:25 AM,48.2,44.6,87,30.02,10.0,South,11.5,24.2,N/A,,Overcast,190,2013-01-07 16:25:00
8:50 AM,48.2,44.6,87,30.03,10.0,Variable,5.8,19.6,N/A,,Overcast,0,2013-01-07 16:50:00
8:53 AM,48.9,44.1,83,30.04,10.0,South,9.2,16.1,N/A,,Overcast,190,2013-01-07 16:53:00
9:05 AM,48.2,44.6,87,30.04,10.0,SSW,9.2,20.7,N/A,,Overcast,200,2013-01-07 17:05:00
9:32 AM,50.0,44.6,82,30.05,10.0,South,5.8,17.3,N/A,,Overcast,190,2013-01-07 17:32:00
9:53 AM,50.0,45.0,83,30.07,10.0,SSW,11.5,-,N/A,,Overcast,200,2013-01-07 17:53:00
10:53 AM,50.0,46.0,86,30.09,10.0,SSW,8.1,17.3,N/A,,Overcast,200,2013-01-07 18:53:00
11:53 AM,50.0,46.9,89,30.09,9.0,South,6.9,16.1,N/A,,Overcast,190,2013-01-07 19:53:00
12:00 PM,50.0,46.4,87,30.09,10.0,South,8.1,17.3,N/A,,Overcast,190,2013-01-07 20:00:00
12:12 PM,51.8,46.4,82,30.09,10.0,SSW,9.2,18.4,N/A,,Overcast,210,2013-01-07 20:12:00
12:19 PM,51.8,46.4,82,30.09,10.0,SSW,6.9,18.4,N/A,,Overcast,200,2013-01-07 20:19:00
12:53 PM,51.1,46.9,86,30.10,10.0,SSW,6.9,-,N/A,,Overcast,200,2013-01-07 20:53:00
1:53 PM,53.1,46.9,80,30.11,10.0,South,5.8,-,N/A,,Overcast,180,2013-01-07 21:53:00
2:10 PM,53.6,46.4,77,30.12,10.0,SE,3.5,-,N/A,,Overcast,140,2013-01-07 22:10:00
3:53 PM,53.1,46.0,77,30.16,10.0,SSW,5.8,-,N/A,,Mostly Cloudy,210,2013-01-07 23:53:00
4:53 PM,52.0,45.0,77,30.15,10.0,SW,4.6,-,N/A,,Overcast,220,2013-01-08 00:53:00
5:53 PM,51.1,45.0,80,30.18,10.0,WNW,3.5,-,N/A,,Overcast,300,2013-01-08 01:53:00
6:53 PM,48.9,44.1,83,30.19,10.0,Calm,Calm,-,N/A,,Overcast,0,2013-01-08 02:53:00
7:53 PM,48.0,44.1,86,30.19,10.0,Calm,Calm,-,N/A,,Overcast,0,2013-01-08 03:53:00
8:53 PM,46.9,43.0,86,30.21,10.0,Calm,Calm,-,N/A,,Overcast,0,2013-01-08 04:53:00
9:53 PM,45.0,42.1,90,30.21,10.0,Calm,Calm,-,N/A,,Overcast,0,2013-01-08 05:53:00
10:53 PM,44.1,42.1,93,30.22,10.0,Calm,Calm,-,N/A,,Overcast,0,2013-01-08 06:53:00
11:53 PM,45.0,42.1,90,30.22,10.0,Calm,Calm,-,N/A,,Overcast,0,2013-01-08 07:53:00